This is the latest recevied weather packets stored in our database for station/object AI5KP-13. If no packets are shown the sender has not sent any weather packets the latest 10 day(s).
| Time | Temp. | Humidity | Pressure | Rain* | Wind** | Luminosity | Snow |
|---|---|---|---|---|---|---|---|
| 1777298675 | 24.44° C | 82% | 1005 hPa | 0 mm | - | 241 W/m² | - |
| 1777298372 | 23.89° C | 82% | 1005 hPa | 0 mm | - | 207 W/m² | - |
| 1777298068 | 23.89° C | 83% | 1005 hPa | 0 mm | - | 198 W/m² | - |
| 1777297767 | 23.89° C | 83% | 1005.1 hPa | 0 mm | - | 134 W/m² | - |
| 1777297466 | 23.89° C | 83% | 1005 hPa | 0 mm | - | 126 W/m² | - |
| 1777297163 | 23.89° C | 83% | 1005.2 hPa | 0 mm | - | 115 W/m² | - |
| 1777296860 | 23.89° C | 84% | 1005.3 hPa | 0 mm | - | 81 W/m² | - |
| 1777296555 | 23.89° C | 83% | 1005.1 hPa | 0 mm | - | 82 W/m² | - |
| 1777296221 | 23.89° C | 83% | 1005.2 hPa | 0 mm | - | 76 W/m² | - |
| 1777295918 | 23.89° C | 83% | 1005 hPa | 0 mm | - | 87 W/m² | - |
| 1777295615 | 23.89° C | 84% | 1004.9 hPa | 0 mm | - | 87 W/m² | - |
| 1777295312 | 23.89° C | 83% | 1005.1 hPa | 0 mm | - | 79 W/m² | - |
| 1777295010 | 23.89° C | 84% | 1005 hPa | 0 mm | - | 75 W/m² | - |
| 1777294701 | 23.89° C | 83% | 1005 hPa | 0 mm | - | 91 W/m² | - |
| 1777294396 | 23.89° C | 84% | 1004.8 hPa | 0 mm | - | 77 W/m² | - |
| 1777294093 | 23.89° C | 83% | 1004.6 hPa | 0 mm | - | 99 W/m² | - |
| 1777293789 | 23.33° C | 84% | 1004.5 hPa | 0 mm | - | 80 W/m² | - |
| 1777293484 | 23.33° C | 84% | 1004.4 hPa | 0 mm | - | 67 W/m² | - |
| 1777293180 | 23.33° C | 84% | 1004.1 hPa | 0 mm | - | 62 W/m² | - |
| 1777292880 | 23.33° C | 85% | 1004.1 hPa | 0 mm | - | 59 W/m² | - |
| 1777292576 | 23.33° C | 85% | 1004.2 hPa | 0 mm | - | 46 W/m² | - |
| 1777292271 | 23.33° C | 85% | 1004.4 hPa | 0 mm | - | 35 W/m² | - |
| 1777291968 | 23.33° C | 85% | 1004.2 hPa | 0 mm | - | 32 W/m² | - |
| 1777291665 | 23.33° C | 85% | 1004.1 hPa | 0 mm | - | 26 W/m² | - |
| 1777291362 | 23.33° C | 86% | 1004.1 hPa | 0 mm | - | 17 W/m² | - |
* Rain latest hour (hover to see other rain measurements)
** Current wind speed in m/s (hover to see current wind gust speed)